Location: Betra
(48.4113°N, 8.6634°E)
Time: 16:05:07
(UTC+00:00)

Cosmos 1850 Rocket - Pass Details

Date: 12 August 2024
Orbit: 751 x 783 km, 74.0° (Epoch: 17 September)

Event Time Altitude Azimuth Distance (km) Brightness Sun altitude
Rises 19:12:54 0° 338° (NNW) 3,259 8.1 -5.1°
Reaches altitude 10° 19:15:19 10° 342° (NNW) 2,333 7.3 -5.5°
Maximum altitude 19:20:35 64° 64° (ENE) 865 4.2 -6.2°
Drops below altitude 10° 19:25:51 10° 146° (SE) 2,332 5.9 -7.0°
Enters shadow 19:26:53 - 148° (SSE) 2,727 6.3 -7.1°
